Temperature
24 22 23 24 24 25 25 24 24 24 24 24 23 22 22 22 22 21 22 22 22 22 22 22 22 22 21 21 20 20 20 19 19 19 19 19 18 18 18 18 18 18 18 18
22 23 24 24 24 25 24 24 24 25 24 24 23 22 22 21 21 22 22 22 22 22 22 22 22 22 21 21 21 20 20 19 19 19 19 19 18 18 18 18 18 18 18 18
24 24 25 25 25 25 25 25 25 25 24 23 23 23 22 22 22 22 22 22 22 22 22 22 22 22 21 21 21 20 20 20 19 19 19 19 18 18 18 18 18 18 18 18
24 24 25 25 26 25 25 25 25 25 23 22 23 22 22 21 21 21 22 22 22 22 22 22 22 22 22 21 21 20 20 20 19 19 19 19 19 18 18 18 18 18 18 17
24 25 25 26 26 26 25 24 24 23 22 21 22 22 21 21 21 21 21 22 22 22 22 22 22 22 22 21 21 20 20 20 20 19 19 19 18 18 18 18 18 18 18 17
23 24 25 25 26 25 24 22 21 19 19 21 22 22 22 20 21 21 21 22 22 22 22 22 22 22 22 21 21 20 20 20 20 19 19 19 19 18 18 18 18 18 18 18
24 25 25 26 25 25 23 21 21 22 20 21 21 21 21 21 21 21 22 22 22 23 23 22 22 22 22 21 21 20 20 20 19 19 19 19 18 18 18 18 18 18 18 18
23 23 24 25 25 24 23 22 21 22 21 20 20 21 21 22 22 22 23 23 23 22 23 22 22 22 22 21 21 20 20 20 19 19 19 19 18 18 18 18 18 18 18 18
21 22 24 25 25 23 22 21 20 19 20 20 20 21 21 22 21 21 22 22 22 22 22 22 22 22 22 21 21 20 20 20 19 19 19 19 18 18 18 18 17 17 17 17
21 23 24 24 24 23 22 18 18 19 20 21 22 22 21 22 22 21 20 21 21 22 22 22 22 22 22 21 21 20 20 19 19 19 19 19 18 18 18 17 17 17 17 17
21 22 23 24 25 24 22 20 17 16 18 19 21 22 22 21 21 20 20 21 22 22 22 22 22 22 22 21 21 20 20 19 19 19 18 18 18 18 17 17 17 17 17 17
20 19 20 22 23 23 23 20 18 20 19 18 19 21 22 21 20 21 21 21 21 22 22 22 22 22 21 21 21 20 20 19 19 18 18 18 18 18 17 17 17 17 17 17
19 19 20 22 22 23 23 20 19 17 16 16 20 22 21 20 20 21 21 21 21 21 21 21 21 21 21 21 20 20 20 19 19 18 18 18 18 17 17 17 17 17 16 16
19 18 19 21 21 22 23 21 19 19 18 18 19 22 22 21 19 20 20 20 21 21 21 21 21 21 21 20 20 20 20 19 19 18 18 18 17 17 17 17 16 16 16 16
19 19 20 20 22 22 23 22 20 21 19 20 21 20 21 20 20 20 20 20 20 20 20 21 21 21 20 20 20 20 19 19 18 18 18 17 17 17 16 16 16 16 16 15
17 19 20 22 22 23 23 23 22 22 21 21 22 21 20 20 20 20 19 20 20 20 20 20 20 20 20 20 20 19 19 19 18 18 18 17 17 16 16 16 16 15 15 15
16 17 18 20 22 23 22 22 22 22 21 21 22 22 20 19 19 19 19 20 21 21 21 21 20 20 20 20 20 19 19 18 18 18 17 17 16 16 16 15 15 15 15 14
15 16 15 17 21 22 21 21 22 22 21 20 21 20 19 20 21 21 21 21 21 21 21 21 20 20 20 20 19 19 18 18 18 17 17 16 16 16 15 15 15 15 14 14
14 15 15 16 19 20 21 21 21 21 22 20 19 19 19 20 20 19 21 22 22 22 22 21 21 20 20 20 19 19 18 18 17 17 16 16 16 15 15 15 15 14 14 14
14 14 15 16 19 20 21 21 21 21 21 20 19 18 18 19 19 19 22 21 21 21 21 21 21 20 20 19 19 19 18 18 17 17 16 16 16 15 15 14 14 14 14 13
16 15 15 16 18 18 19 19 20 21 21 20 19 19 19 19 21 22 22 21 21 21 21 21 20 20 20 19 19 18 18 18 17 17 16 15 15 15 14 14 14 13 13 13
15 15 15 15 18 18 18 18 19 19 19 19 19 20 20 21 21 22 22 21 21 21 21 21 20 20 19 19 18 18 17 17 17 16 16 15 15 14 14 14 13 13 13 12
13 14 13 14 16 16 16 17 18 19 19 19 20 20 20 20 21 21 21 21 21 20 20 20 20 19 19 18 18 18 17 17 16 16 15 15 15 14 14 13 13 13 12 12
13 13 13 14 15 15 16 17 18 19 20 20 20 20 20 20 21 21 21 20 20 20 20 19 19 19 19 18 18 17 17 16 16 15 15 15 14 14 13 13 13 12 12 12
13 13 13 14 14 15 17 17 18 19 19 20 20 20 20 20 20 20 20 19 19 19 19 19 19 19 18 18 17 17 16 16 15 15 15 14 14 13 13 13 12 12 12 11
12 12 13 14 14 14 16 17 17 18 18 19 20 20 19 20 19 19 19 19 19 19 19 18 18 18 18 17 17 16 16 15 15 15 14 14 13 13 13 12 12 11 11 11
Wind_Speed
5 6 2 4 5 5 4 3 3 4 2 4 5 4 6 8 8 9 9 8 8 7 5 5 6 7 7 7 7 7 6 5 5 3 3 2 2 2 2 3 5 6 7 6
6 0 4 4 4 3 4 2 1 2 2 4 2 2 3 6 9 9 10 9 9 6 5 5 6 6 7 7 7 6 6 6 5 4 3 2 2 2 2 2 3 6 6 6
5 4 2 3 3 3 2 4 3 2 3 5 4 3 2 4 5 5 6 7 8 9 9 7 7 7 7 7 7 7 6 6 5 5 3 2 2 1 0 1 1 2 5 5
3 4 2 2 2 5 2 3 4 4 5 1 2 2 6 4 5 7 8 8 8 8 8 8 8 8 8 7 6 5 5 5 4 4 4 4 3 3 2 2 1 1 3 4
4 3 2 2 4 6 3 3 5 4 5 3 3 2 7 2 6 10 10 9 8 8 8 9 9 9 8 7 6 5 5 4 4 4 5 4 3 2 1 0 0 1 1 2
5 3 4 5 2 4 6 8 8 7 6 2 2 2 7 5 8 6 8 9 9 9 8 7 7 6 6 5 5 5 5 4 4 5 5 5 4 2 1 1 1 1 1 1
2 3 3 3 3 3 6 7 5 5 4 4 3 2 9 8 7 8 8 9 9 9 9 8 8 8 8 7 6 5 5 4 4 4 4 4 4 3 3 2 1 1 1 1
5 5 4 4 7 6 5 9 8 5 5 4 2 5 8 6 4 4 5 6 8 8 8 9 8 8 8 8 7 6 5 4 4 4 3 3 3 2 2 1 1 1 1 1
8 6 5 3 4 10 7 4 7 8 4 1 5 7 8 3 2 1 4 6 8 8 8 8 8 7 7 7 6 6 5 4 4 4 3 3 3 2 2 1 1 0 0 0
9 4 4 2 5 6 6 10 7 7 6 2 5 5 5 6 4 3 5 7 7 7 7 8 8 8 7 6 6 5 6 4 3 3 3 2 2 2 2 2 1 1 1 2
6 5 3 2 5 7 6 6 6 6 6 7 3 7 7 8 7 8 8 7 8 9 9 8 7 7 7 6 6 6 5 5 4 3 3 3 3 3 3 3 2 2 2 3
6 6 2 6 3 3 6 9 9 7 4 5 5 8 6 6 6 6 6 6 6 7 7 7 7 7 7 7 7 6 6 5 4 4 4 4 4 4 4 4 3 3 4 4
8 7 3 4 5 1 4 5 5 8 7 6 6 7 3 1 3 5 7 7 7 7 7 6 7 7 7 6 6 6 6 5 4 5 5 5 5 5 4 4 4 4 5 5
7 6 7 9 8 6 5 5 6 7 6 6 8 8 6 4 5 6 7 8 8 8 8 8 7 6 6 6 6 6 6 5 6 6 6 6 5 5 5 5 5 5 5 5
6 6 6 5 5 5 5 6 8 7 9 9 9 9 10 9 8 7 8 9 9 8 8 9 8 8 7 6 6 6 6 6 6 7 7 6 6 6 6 6 5 6 6 6
4 6 5 2 2 3 3 5 8 6 6 6 4 8 7 3 4 6 9 10 10 9 9 9 8 8 8 7 7 7 6 6 7 7 7 7 6 6 6 6 6 6 7 6
3 6 6 4 1 3 3 5 6 5 5 7 8 8 3 4 8 10 11 11 11 10 9 10 10 9 8 8 8 7 6 6 7 7 7 7 7 6 6 6 6 7 6 7
7 6 5 4 5 5 8 4 4 5 4 5 5 4 5 6 5 5 7 10 10 10 9 9 9 9 8 7 8 8 8 7 7 7 6 6 7 7 6 6 6 6 5 6
5 8 5 5 5 4 5 2 3 4 3 3 4 2 3 5 5 1 4 7 9 9 8 8 9 8 8 9 9 9 8 7 7 6 6 6 6 7 7 6 6 5 6 6
5 5 6 5 6 7 7 3 1 3 3 3 4 5 6 7 4 4 5 7 8 7 7 8 8 8 9 8 9 10 9 8 7 6 6 6 7 8 7 6 5 5 6 6
4 4 5 5 4 6 5 5 1 5 7 3 3 5 8 6 5 4 8 8 8 8 8 9 9 9 8 8 9 9 9 8 7 7 7 7 7 7 7 6 5 6 6 6
4 4 4 5 4 6 3 1 4 5 3 1 2 4 5 4 4 7 9 9 10 9 8 9 9 8 8 9 9 8 8 7 8 8 8 7 6 6 7 7 6 6 6 7
2 4 5 5 5 4 3 3 3 2 1 1 1 2 5 5 6 7 8 9 9 9 8 8 10 9 7 8 9 9 8 8 9 9 8 7 7 6 6 7 7 5 5 5
1 1 2 0 3 4 3 3 3 1 1 0 1 3 4 5 6 7 7 7 8 7 8 8 9 9 7 7 7 8 9 9 9 9 8 7 7 6 6 5 5 5 4 4
2 1 2 0 3 4 4 4 4 4 4 5 5 3 4 6 6 6 6 7 7 7 7 8 9 9 8 7 7 8 9 9 9 9 8 7 6 7 6 5 4 3 2 3
2 3 4 4 4 2 3 3 3 3 4 3 5 5 4 4 6 6 6 5 6 7 6 7 8 8 8 8 8 8 8 9 10 9 8 6 6 6 6 6 5 8 5 5
Wind_Direction
37 72 135 191 175 164 158 157 230 251 207 149 182 202 196 183 189 193 200 199 201 209 195 170 171 168 164 169 175 181 177 177 163 157 170 182 207 213 212 216 220 225 226 218
45 298 214 178 163 138 138 138 261 338 56 122 148 252 217 191 205 203 200 202 203 195 170 168 163 162 170 176 180 179 183 182 183 180 175 176 178 205 214 223 224 224 223 218
166 226 192 149 140 124 152 172 194 164 62 56 91 346 261 234 215 210 203 199 196 193 184 180 174 176 174 180 184 186 185 185 188 175 144 114 90 56 73 245 241 233 227 221
212 242 176 140 166 145 236 219 173 138 105 9 99 249 277 244 237 223 211 199 197 194 186 183 180 179 182 187 181 180 177 178 178 168 163 166 179 202 216 212 222 251 232 225
224 199 148 189 205 167 188 84 101 101 109 65 34 140 285 278 244 237 218 201 197 191 188 186 184 183 180 173 169 174 170 174 171 171 174 173 191 210 210 167 233 260 265 239
228 233 205 202 188 149 124 74 58 51 70 59 277 172 277 240 229 237 211 198 191 183 182 181 174 160 159 156 159 164 168 178 175 175 174 179 193 194 181 213 246 267 275 279
292 285 246 171 106 57 94 91 44 18 19 253 280 212 252 259 247 221 199 191 185 175 172 170 167 165 165 164 167 166 168 181 177 173 179 186 190 183 196 211 220 230 244 263
173 265 243 191 172 165 154 135 152 177 204 267 320 242 260 276 281 218 186 172 163 168 170 171 174 172 170 166 163 161 167 177 172 172 178 179 177 174 188 194 201 229 244 260
170 236 281 235 173 136 132 145 151 128 137 85 287 289 303 306 339 118 153 157 166 167 167 169 165 163 162 158 162 167 164 171 168 165 155 145 156 162 166 163 151 295 311 27
153 200 282 292 88 43 133 139 106 116 138 211 293 283 256 261 237 204 181 180 171 156 158 164 161 157 157 155 155 151 151 161 146 139 145 139 131 136 127 108 96 77 49 53
139 154 302 31 164 162 114 96 102 106 140 149 215 267 232 224 213 201 200 182 165 161 161 161 152 147 147 144 140 138 135 132 129 128 117 109 107 105 100 94 83 72 60 59
145 129 220 262 268 173 154 160 146 145 178 163 169 261 275 227 205 186 180 168 159 156 149 144 140 142 143 143 139 137 134 136 138 128 114 106 100 96 92 86 76 75 71 66
140 124 108 345 347 54 130 138 134 121 117 147 165 258 310 131 166 164 161 160 156 149 141 138 140 142 145 144 138 135 135 135 127 120 114 104 95 92 88 81 76 76 79 75
126 124 161 187 209 186 158 151 145 127 142 181 212 243 279 236 199 177 166 161 155 153 152 150 147 144 145 141 137 133 131 129 126 121 117 111 102 95 86 77 74 74 80 80
120 153 181 205 201 174 172 174 171 173 175 177 218 223 242 230 207 183 164 156 154 158 162 158 155 150 145 135 130 129 130 129 128 125 118 113 105 97 89 78 73 72 74 76
89 145 148 179 208 185 178 183 179 184 171 197 212 244 251 225 148 154 164 164 165 169 169 159 152 151 150 146 143 138 137 136 129 127 125 116 107 98 90 84 79 77 72 70
115 125 131 187 209 110 225 208 178 181 187 174 200 231 195 171 184 183 177 173 176 173 168 163 159 160 158 151 146 145 137 128 125 126 127 122 114 104 96 92 85 81 76 73
138 122 127 138 122 190 238 257 188 175 201 207 218 227 194 201 188 168 166 173 173 169 166 164 161 161 153 144 138 135 129 129 125 123 122 121 116 111 104 97 92 87 83 79
143 132 118 127 156 236 286 244 163 170 242 223 203 198 128 119 89 84 185 175 175 172 163 161 160 153 147 146 144 140 136 133 130 132 131 129 126 120 113 108 104 97 91 81
71 99 115 125 142 204 233 268 279 135 257 258 186 169 146 127 142 226 183 163 155 148 147 146 141 133 140 148 144 142 144 144 149 149 140 133 128 124 121 119 111 100 98 93
63 63 113 141 168 242 255 290 75 156 233 273 195 175 161 172 197 171 146 146 143 141 143 141 136 138 144 144 143 147 150 157 151 136 125 120 120 122 122 116 110 110 105 97
149 131 150 139 157 234 299 45 162 215 267 265 187 172 160 154 129 128 138 142 140 139 139 139 138 138 140 144 143 150 154 149 136 129 126 123 123 126 124 119 111 110 113 105
163 181 180 183 203 250 296 257 276 227 226 249 166 165 145 135 135 131 136 142 144 144 143 139 139 138 141 148 151 154 151 142 134 129 128 126 120 114 122 125 124 116 113 114
305 98 131 289 304 311 321 330 337 322 219 321 128 136 138 141 137 133 138 144 142 139 140 138 137 142 147 150 147 148 145 142 136 135 134 133 128 122 114 114 123 128 133 131
239 95 96 24 302 350 359 359 355 12 33 52 58 78 118 128 128 134 141 146 146 142 142 144 149 153 155 150 143 143 146 145 141 139 138 136 132 130 121 107 96 120 125 151
225 181 160 207 224 197 267 312 358 32 29 45 69 62 65 109 128 129 137 144 143 145 144 146 149 153 153 150 147 148 150 149 146 145 146 146 142 138 135 125 95 63 79 90
Height
1503 1510 1517 1514 1513 1515 1518 1524 1527 1522 1514 1519 1523 1524 1522 1523 1526 1527 1529 1531 1533 1535 1538 1540 1542 1545 1547 1549 1551 1552 1554 1555 1556 1558 1559 1559 1560 1561 1561 1562 1563 1563 1564 1565
1510 1514 1509 1508 1510 1513 1517 1523 1524 1519 1515 1520 1525 1525 1522 1523 1524 1524 1526 1529 1531 1533 1536 1538 1541 1543 1545 1547 1549 1551 1552 1554 1555 1557 1557 1558 1559 1559 1560 1560 1560 1561 1562 1563
1511 1510 1506 1508 1511 1515 1517 1521 1521 1522 1520 1522 1526 1531 1525 1522 1523 1524 1526 1526 1528 1531 1533 1536 1538 1540 1543 1545 1547 1549 1551 1553 1554 1555 1556 1557 1558 1558 1558 1559 1559 1560 1561 1561
1507 1505 1505 1508 1510 1512 1520 1512 1514 1519 1529 1538 1532 1547 1529 1524 1522 1521 1522 1524 1525 1528 1531 1533 1536 1538 1541 1543 1546 1548 1549 1551 1553 1554 1555 1555 1556 1556 1557 1557 1558 1559 1559 1560
1507 1503 1505 1508 1507 1507 1512 1510 1515 1521 1530 1540 1537 1545 1537 1525 1524 1519 1517 1520 1522 1525 1528 1531 1534 1536 1539 1542 1544 1547 1548 1550 1551 1552 1553 1554 1554 1555 1556 1556 1556 1557 1558 1558
1503 1500 1501 1501 1501 1503 1508 1516 1524 1532 1540 1552 1542 1546 1541 1528 1519 1514 1514 1516 1519 1523 1526 1529 1532 1535 1538 1541 1543 1545 1547 1548 1549 1551 1552 1552 1553 1554 1554 1555 1555 1556 1556 1556
1506 1501 1498 1498 1503 1506 1511 1529 1551 1553 1561 1557 1543 1544 1538 1515 1511 1509 1510 1512 1516 1520 1523 1527 1530 1532 1536 1539 1541 1543 1545 1547 1548 1549 1550 1551 1551 1552 1553 1553 1554 1554 1554 1554
1516 1517 1500 1497 1501 1509 1513 1524 1549 1560 1563 1557 1545 1544 1526 1510 1507 1506 1508 1510 1514 1518 1521 1525 1528 1531 1534 1537 1539 1542 1544 1545 1547 1548 1549 1549 1550 1550 1551 1552 1552 1553 1553 1553
1516 1515 1497 1494 1495 1501 1515 1523 1526 1546 1552 1557 1550 1536 1519 1508 1507 1507 1508 1510 1513 1516 1520 1523 1527 1530 1533 1536 1538 1541 1542 1544 1545 1547 1547 1547 1548 1549 1549 1550 1551 1551 1551 1551
1502 1510 1499 1495 1496 1501 1505 1517 1533 1546 1560 1561 1549 1541 1532 1514 1509 1508 1508 1509 1512 1515 1518 1522 1525 1528 1532 1535 1537 1540 1541 1543 1544 1546 1546 1546 1547 1547 1548 1549 1549 1549 1550 1550
1496 1508 1505 1500 1500 1506 1511 1520 1531 1544 1546 1560 1558 1544 1512 1508 1506 1506 1507 1508 1511 1514 1517 1520 1524 1527 1531 1534 1536 1538 1540 1542 1543 1544 1545 1546 1546 1547 1548 1548 1548 1549 1549 1549
1495 1508 1515 1506 1497 1495 1499 1510 1522 1536 1545 1549 1551 1539 1502 1502 1502 1504 1506 1508 1511 1513 1516 1520 1523 1527 1529 1532 1535 1537 1539 1541 1542 1543 1544 1545 1546 1547 1547 1547 1547 1548 1548 1548
1493 1508 1521 1518 1512 1502 1502 1508 1513 1524 1540 1550 1549 1531 1502 1501 1502 1503 1505 1508 1510 1513 1516 1519 1523 1525 1528 1531 1534 1536 1538 1540 1541 1543 1544 1545 1546 1546 1546 1547 1547 1547 1547 1547
1485 1503 1513 1521 1515 1504 1504 1508 1513 1519 1535 1542 1535 1520 1505 1502 1501 1502 1504 1506 1509 1512 1515 1519 1522 1525 1528 1531 1533 1536 1537 1539 1541 1542 1544 1545 1545 1546 1546 1547 1547 1547 1547 1547
1484 1499 1500 1499 1496 1497 1497 1501 1507 1509 1516 1524 1518 1515 1503 1498 1498 1500 1503 1506 1509 1512 1514 1517 1520 1524 1528 1531 1533 1535 1538 1539 1540 1542 1544 1545 1546 1546 1547 1547 1547 1547 1547 1547
1486 1495 1498 1498 1495 1495 1497 1497 1500 1502 1506 1508 1507 1507 1495 1495 1497 1500 1502 1505 1507 1510 1513 1516 1519 1523 1527 1530 1533 1535 1538 1539 1540 1542 1544 1545 1546 1547 1547 1548 1548 1548 1548 1548
1491 1496 1504 1508 1498 1497 1506 1497 1497 1498 1499 1501 1505 1499 1494 1495 1495 1496 1499 1503 1505 1508 1512 1515 1519 1523 1526 1529 1532 1535 1538 1539 1541 1542 1544 1546 1547 1547 1548 1548 1549 1548 1548 1548
1489 1497 1506 1511 1506 1517 1503 1489 1489 1492 1493 1493 1492 1491 1491 1491 1492 1495 1498 1501 1504 1507 1511 1515 1519 1522 1526 1529 1532 1535 1538 1540 1541 1542 1544 1545 1546 1548 1548 1549 1549 1549 1549 1549
1483 1493 1507 1515 1515 1508 1496 1488 1489 1492 1493 1489 1490 1489 1490 1491 1494 1497 1498 1500 1503 1506 1510 1514 1518 1522 1525 1529 1532 1535 1537 1539 1541 1543 1544 1545 1546 1548 1548 1549 1549 1549 1549 1549
1485 1489 1502 1512 1513 1515 1497 1486 1485 1489 1495 1487 1486 1487 1489 1491 1498 1496 1496 1499 1503 1507 1510 1514 1518 1521 1524 1528 1531 1534 1536 1538 1540 1542 1544 1545 1546 1547 1548 1549 1550 1550 1550 1550
1493 1498 1503 1508 1508 1503 1490 1485 1485 1500 1496 1485 1484 1485 1487 1488 1490 1491 1494 1497 1502 1506 1510 1513 1517 1520 1524 1528 1530 1532 1535 1537 1540 1542 1543 1544 1546 1547 1548 1549 1550 1550 1551 1551
1496 1500 1505 1507 1507 1505 1486 1485 1489 1489 1484 1483 1483 1484 1485 1487 1489 1490 1493 1497 1501 1505 1509 1512 1515 1519 1523 1527 1530 1532 1533 1536 1539 1540 1542 1544 1545 1546 1547 1549 1550 1551 1551 1552
1494 1495 1496 1498 1498 1489 1486 1486 1485 1484 1483 1482 1483 1484 1486 1487 1489 1491 1494 1497 1501 1504 1507 1511 1515 1518 1522 1525 1528 1531 1533 1535 1537 1539 1542 1543 1545 1546 1547 1548 1550 1551 1552 1552
1492 1491 1493 1493 1489 1487 1485 1484 1484 1483 1483 1483 1483 1484 1486 1488 1489 1492 1494 1497 1500 1504 1507 1511 1514 1517 1521 1524 1527 1530 1533 1535 1536 1538 1540 1542 1544 1545 1547 1548 1550 1551 1552 1553
1491 1491 1492 1492 1489 1486 1485 1485 1485 1484 1483 1484 1484 1486 1487 1489 1490 1493 1495 1498 1501 1504 1507 1511 1514 1517 1520 1523 1526 1529 1531 1533 1535 1537 1539 1541 1543 1545 1546 1547 1549 1551 1552 1553
1489 1490 1491 1491 1488 1488 1488 1487 1486 1486 1485 1485 1486 1487 1488 1490 1491 1493 1496 1499 1502 1504 1507 1510 1513 1516 1519 1522 1524 1527 1529 1532 1533 1535 1538 1540 1542 1544 1545 1546 1548 1550 1551 1553